TimeCST,TemperatureF,Dew PointF,Humidity,Sea Level PressureIn,VisibilityMPH,Wind Direction,Wind SpeedMPH,Gust SpeedMPH,PrecipitationIn,Events,Conditions,WindDirDegrees,DateUTC
12:15 AM,68.0,64.6,89,29.99,7.0,SE,10.4,-,N/A,,Mostly Cloudy,140,2014-02-17 06:15:00
12:35 AM,67.8,64.4,89,29.99,7.0,SE,10.4,-,N/A,,Overcast,140,2014-02-17 06:35:00
12:55 AM,67.5,64.2,89,29.98,7.0,SSE,10.4,-,N/A,,Overcast,150,2014-02-17 06:55:00
1:15 AM,67.1,64.0,90,29.98,7.0,SSE,10.4,-,N/A,,Mostly Cloudy,150,2014-02-17 07:15:00
1:35 AM,66.2,63.5,91,29.98,7.0,SE,9.2,-,N/A,,Scattered Clouds,140,2014-02-17 07:35:00
1:55 AM,66.2,63.5,91,29.98,7.0,SE,8.1,-,N/A,,Scattered Clouds,140,2014-02-17 07:55:00
2:15 AM,66.7,63.9,90,29.98,7.0,SE,9.2,-,N/A,,Mostly Cloudy,140,2014-02-17 08:15:00
2:35 AM,66.7,63.9,90,29.97,7.0,SE,8.1,-,N/A,,Mostly Cloudy,140,2014-02-17 08:35:00
2:55 AM,66.4,63.5,90,29.97,7.0,SE,6.9,-,N/A,,Mostly Cloudy,130,2014-02-17 08:55:00
3:15 AM,67.6,64.0,88,29.96,7.0,SE,9.2,-,N/A,,Overcast,140,2014-02-17 09:15:00
3:35 AM,67.3,64.0,89,29.96,7.0,SE,9.2,-,N/A,,Overcast,140,2014-02-17 09:35:00
3:55 AM,67.3,63.9,89,29.96,7.0,SE,8.1,-,N/A,,Overcast,130,2014-02-17 09:55:00
4:15 AM,67.3,63.9,89,29.96,7.0,SSE,8.1,-,N/A,,Overcast,150,2014-02-17 10:15:00
4:35 AM,68.0,64.2,88,29.96,7.0,SSE,10.4,-,N/A,,Overcast,160,2014-02-17 10:35:00
4:55 AM,68.2,64.4,88,29.96,7.0,SSE,10.4,-,N/A,,Overcast,150,2014-02-17 10:55:00
5:15 AM,68.0,64.4,88,29.97,7.0,SSE,9.2,-,N/A,,Overcast,150,2014-02-17 11:15:00
5:35 AM,68.0,64.4,88,29.97,7.0,SSE,9.2,-,N/A,,Overcast,160,2014-02-17 11:35:00
5:55 AM,67.6,63.9,88,29.98,7.0,SSE,10.4,-,N/A,,Overcast,150,2014-02-17 11:55:00
6:15 AM,66.6,63.5,90,29.98,7.0,SSE,8.1,-,N/A,,Mostly Cloudy,150,2014-02-17 12:15:00
6:35 AM,66.2,63.5,91,29.98,7.0,SSE,9.2,-,N/A,,Scattered Clouds,160,2014-02-17 12:35:00
6:55 AM,65.8,63.0,90,29.98,7.0,SSE,10.4,-,N/A,,Scattered Clouds,160,2014-02-17 12:55:00
7:15 AM,66.2,63.1,90,29.98,5.0,SSE,10.4,-,N/A,,Scattered Clouds,150,2014-02-17 13:15:00
7:35 AM,66.4,63.5,90,29.98,5.0,SSE,12.7,-,N/A,,Clear,160,2014-02-17 13:35:00
7:55 AM,67.3,63.9,89,29.99,7.0,SSE,11.5,-,N/A,,Clear,160,2014-02-17 13:55:00
8:15 AM,68.0,63.9,87,30.00,7.0,SSE,10.4,-,N/A,,Clear,160,2014-02-17 14:15:00
8:35 AM,68.9,64.2,85,30.01,7.0,SSE,10.4,-,N/A,,Clear,160,2014-02-17 14:35:00
8:55 AM,70.0,64.4,82,30.02,7.0,SSE,11.5,-,N/A,,Clear,160,2014-02-17 14:55:00
9:15 AM,71.6,64.6,78,30.02,7.0,South,12.7,-,N/A,,Clear,170,2014-02-17 15:15:00
9:35 AM,74.5,64.9,72,30.02,10.0,South,21.9,-,N/A,,Scattered Clouds,180,2014-02-17 15:35:00
9:55 AM,74.8,64.6,70,30.03,10.0,South,20.7,24.2,N/A,,Mostly Cloudy,170,2014-02-17 15:55:00
10:15 AM,75.2,64.2,69,30.04,10.0,SSW,18.4,-,N/A,,Mostly Cloudy,200,2014-02-17 16:15:00
10:35 AM,76.5,64.4,66,30.03,10.0,SSW,17.3,21.9,N/A,,Scattered Clouds,200,2014-02-17 16:35:00
10:55 AM,78.1,64.2,62,30.03,10.0,SSW,20.7,25.3,N/A,,Clear,200,2014-02-17 16:55:00
11:15 AM,80.4,63.3,56,30.02,10.0,South,18.4,24.2,N/A,,Clear,180,2014-02-17 17:15:00
11:35 AM,81.0,63.7,56,30.03,10.0,South,11.5,20.7,N/A,,Clear,190,2014-02-17 17:35:00
11:55 AM,82.0,62.8,52,30.03,10.0,SSW,10.4,18.4,N/A,,Scattered Clouds,210,2014-02-17 17:55:00
12:15 PM,83.3,62.8,50,30.01,10.0,South,15.0,20.7,N/A,,Scattered Clouds,180,2014-02-17 18:15:00
12:35 PM,84.7,61.9,46,29.99,10.0,South,12.7,23.0,N/A,,Clear,180,2014-02-17 18:35:00
12:55 PM,86.7,60.4,41,29.98,10.0,South,16.1,25.3,N/A,,Clear,190,2014-02-17 18:55:00
1:15 PM,86.7,58.8,39,29.98,10.0,South,15.0,26.5,N/A,,Clear,190,2014-02-17 19:15:00
1:35 PM,87.3,59.0,38,29.97,10.0,South,8.1,20.7,N/A,,Clear,170,2014-02-17 19:35:00
1:55 PM,85.6,62.2,45,29.97,10.0,SSE,9.2,-,N/A,,Scattered Clouds,150,2014-02-17 19:55:00
2:15 PM,86.4,62.1,44,29.96,10.0,SSE,9.2,-,N/A,,Scattered Clouds,150,2014-02-17 20:15:00
2:35 PM,86.2,62.1,44,29.96,10.0,SE,10.4,-,N/A,,Scattered Clouds,130,2014-02-17 20:35:00
2:55 PM,86.2,61.9,44,29.95,10.0,South,10.4,-,N/A,,Clear,170,2014-02-17 20:55:00
3:15 PM,85.6,62.4,46,29.95,10.0,SE,11.5,17.3,N/A,,Scattered Clouds,140,2014-02-17 21:15:00
3:35 PM,84.2,63.9,50,29.96,10.0,ESE,18.4,23.0,N/A,,Clear,110,2014-02-17 21:35:00
3:55 PM,84.0,63.7,50,29.97,10.0,ESE,18.4,24.2,N/A,,Clear,120,2014-02-17 21:55:00
4:15 PM,82.9,63.5,52,29.97,10.0,ESE,21.9,-,N/A,,Clear,120,2014-02-17 22:15:00
4:35 PM,81.5,63.5,54,29.98,10.0,ESE,20.7,-,N/A,,Clear,120,2014-02-17 22:35:00
4:55 PM,79.7,63.3,57,29.99,10.0,SE,20.7,-,N/A,,Clear,130,2014-02-17 22:55:00
5:15 PM,78.8,63.7,60,29.99,10.0,SE,20.7,25.3,N/A,,Clear,130,2014-02-17 23:15:00
5:35 PM,77.0,64.0,64,30.00,10.0,SE,20.7,-,N/A,,Clear,130,2014-02-17 23:35:00
5:55 PM,75.4,64.6,69,30.01,10.0,ESE,19.6,23.0,N/A,,Clear,120,2014-02-17 23:55:00
6:15 PM,73.9,65.7,75,30.02,10.0,SE,18.4,-,N/A,,Clear,130,2014-02-18 00:15:00
6:35 PM,72.9,66.4,80,30.02,10.0,ESE,16.1,-,N/A,,Clear,120,2014-02-18 00:35:00
6:55 PM,72.5,67.1,83,30.03,10.0,ESE,16.1,-,N/A,,Mostly Cloudy,120,2014-02-18 00:55:00
7:15 PM,72.5,67.3,84,30.03,10.0,ESE,13.8,-,N/A,,Overcast,120,2014-02-18 01:15:00
7:35 PM,72.5,67.1,83,30.05,10.0,ESE,15.0,-,N/A,,Mostly Cloudy,110,2014-02-18 01:35:00
7:55 PM,71.8,67.1,85,30.05,10.0,ESE,15.0,-,N/A,,Mostly Cloudy,120,2014-02-18 01:55:00
8:15 PM,71.1,66.9,87,30.05,10.0,ESE,15.0,-,N/A,,Mostly Cloudy,120,2014-02-18 02:15:00
8:35 PM,70.5,66.7,88,30.06,10.0,ESE,13.8,-,N/A,,Scattered Clouds,120,2014-02-18 02:35:00
8:55 PM,70.2,66.6,88,30.08,10.0,ESE,8.1,-,N/A,,Mostly Cloudy,110,2014-02-18 02:55:00
9:15 PM,70.2,66.6,88,30.08,10.0,ESE,9.2,-,N/A,,Overcast,110,2014-02-18 03:15:00
9:35 PM,70.2,66.7,89,30.09,10.0,ESE,9.2,-,N/A,,Overcast,120,2014-02-18 03:35:00
9:55 PM,70.2,66.7,89,30.09,10.0,ESE,8.1,-,N/A,,Overcast,110,2014-02-18 03:55:00
10:15 PM,70.2,66.9,89,30.09,10.0,ESE,8.1,-,N/A,,Overcast,120,2014-02-18 04:15:00
10:35 PM,70.0,66.7,89,30.09,10.0,ESE,6.9,-,N/A,,Overcast,120,2014-02-18 04:35:00
10:55 PM,69.8,66.7,90,30.09,10.0,SE,8.1,-,N/A,,Overcast,130,2014-02-18 04:55:00
11:15 PM,69.8,66.7,90,30.09,10.0,SE,8.1,-,N/A,,Overcast,130,2014-02-18 05:15:00
11:35 PM,69.8,67.1,91,30.08,10.0,SE,10.4,-,N/A,,Overcast,140,2014-02-18 05:35:00
11:55 PM,69.8,67.1,91,30.08,10.0,SE,10.4,-,N/A,,Overcast,130,2014-02-18 05:55:00